Home   Weather   San Bernardino   Past weeks

Flag for USA Past Weather in San Bernardino, California, USA — Yesterday and Last 2 Weeks

Now
81 °F

Sunny.


Feels Like: 79 °F
Forecast: 49 / 84 °F
Wind: 5 mph from North

Location: Riverside Municipal Airport

Current Time: Apr 30, 2017 at 11:57:27 am

Latest Report: Apr 30, 2017 at 10:53 am


Visibility: 10 mi

Pressure: 30.04 "Hg

Humidity: 13%

Dew Point: 26 °F

Location of San BernardinoLocation

Past Weather in San Bernardino — Graph

°F

San Bernardino Temperature Yesterday

Maximum temperature yesterday: 84 °F (at 2:53 pm)
Minimum temperature yesterday: 60 °F (at 11:53 pm)
Average temperature yesterday: 72 °F

High & Low Weather Summary for the Past Weeks

 TemperatureHumidityPressure
High95 °F (Apr 22, 2:53 pm)96% (Apr 19, 3:53 am)30.14 "Hg (Apr 19, 3:53 am)
Low52 °F (Apr 16, 5:53 am)7% (Apr 29, 3:53 pm)29.66 "Hg (Apr 28, 4:53 pm)
Average68 °F51%29.90 "Hg
* Reported Apr 15 9:53 am — Apr 30 9:53 am, San Bernardino, Weather by CustomWeather, © 2017

Note: Actual official high and low records may vary slightly from our data, if they occured in-between our weather recording intervals... More about our weather records

Advertising

San Bernardino Weather History for the Previous 24 Hours

Scroll right to see more
 ConditionsComfort  
Time TempWeatherWind HumidityBarometerVisibility
9:53 am
Sun, Apr 30
76 °FSunny.5 mph17%30.06 "Hg10 mi
8:53 am71 °FSunny.5 mph21%30.06 "Hg10 mi
7:53 am62 °FSunny.5 mph30%30.05 "Hg10 mi
6:53 am58 °FSunny.6 mph33%30.04 "Hg10 mi
5:53 am55 °FClear.6 mph37%30.03 "Hg10 mi
4:53 am55 °FClear.5 mph40%30.02 "Hg10 mi
3:53 am56 °FClear.5 mph37%30.03 "Hg10 mi
2:53 am57 °FClear.3 mph34%30.03 "Hg10 mi
1:53 am60 °FClear.6 mph33%30.04 "Hg10 mi
12:53 am60 °FClear.3 mph33%30.04 "Hg10 mi
11:53 pm
Sat, Apr 29
60 °FClear.3 mph33%30.03 "Hg10 mi
10:53 pm63 °FClear.No wind28%30.02 "Hg10 mi
9:53 pm66 °FClear.3 mph24%30.02 "Hg10 mi
8:53 pm68 °FClear.6 mph22%29.99 "Hg10 mi
7:53 pm73 °FClear.9 mph18%29.95 "Hg10 mi
6:53 pm81 °FSunny.9 mph7%29.92 "Hg10 mi
5:53 pm83 °FSunny.10 mph7%29.91 "Hg10 mi
4:53 pm84 °FSunny.12 mph7%29.91 "Hg10 mi
3:53 pm84 °FSunny.14 mph7%29.91 "Hg10 mi
2:53 pm84 °FSunny.13 mph8%29.93 "Hg10 mi
1:53 pm82 °FSunny.14 mph9%29.94 "Hg10 mi
12:53 pm80 °FSunny.13 mph10%29.96 "Hg10 mi
11:53 am78 °FSunny.15 mph11%29.96 "Hg10 mi
Weather by CustomWeather, © 2017

See weather overviewHow to use our weather pages